Overview Statistics Trail Chart Weather Telemetry Raw packets
 

This is the latest recevied weather packets stored in our database for station/object K7CTM. If no packets are shown the sender has not sent any weather packets the latest 10 day(s).

<< 16 17 18 19 20 21 22 >>
Time Temp. Humidity Pressure Rain* Wind** Luminosity Snow
1788502178 20.56° C 30% 1021 hPa 0 mm - 0 W/m² -
1788501873 20.56° C 31% 1021.1 hPa 0 mm - 0 W/m² -
1788501569 20.56° C 30% 1021 hPa 0 mm - 0 W/m² -
1788501265 20.56° C 31% 1021 hPa 0 mm - 0 W/m² -
1788500960 20° C 31% 1021 hPa 0 mm - 0 W/m² -
1788500656 19.44° C 33% 1021.1 hPa 0 mm - 0 W/m² -
1788500351 20° C 33% 1021 hPa 0 mm - 0 W/m² -
1788500050 20.56° C 32% 1021 hPa 0 mm - 0 W/m² -
1788499747 20° C 31% 1021.2 hPa 0 mm - 0 W/m² -
1788499443 20° C 32% 1021.1 hPa 0 mm - 0 W/m² -
1788499139 20.56° C 32% 1021.1 hPa 0 mm - 0 W/m² -
1788498834 19.44° C 33% 1021.2 hPa 0 mm - 0 W/m² -
1788498529 20.56° C 32% 1021 hPa 0 mm - 0 W/m² -
1788498226 21.67° C 29% 1021.1 hPa 0 mm - 0 W/m² -
1788497925 21.67° C 28% 1020.6 hPa 0 mm - 0 W/m² -
1788497620 21.11° C 29% 1021 hPa 0 mm - 0 W/m² -
1788497320 20.56° C 30% 1021 hPa 0 mm - 0 W/m² -
1788497017 20.56° C 30% 1020.6 hPa 0 mm - 0 W/m² -
1788496713 20.56° C 30% 1020.7 hPa 0 mm - 0 W/m² -
1788496409 21.11° C 30% 1020.8 hPa 0 mm - 0 W/m² -
1788496110 21.11° C 30% 1020.6 hPa 0 mm - 0 W/m² -
1788495806 21.11° C 29% 1020.8 hPa 0 mm - 0 W/m² -
1788495506 21.11° C 29% 1020.8 hPa 0 mm - 0 W/m² -
1788495202 21.67° C 29% 1020.8 hPa 0 mm - 0 W/m² -
1788494898 21.67° C 29% 1020.8 hPa 0 mm - 0 W/m² -

* Rain latest hour (hover to see other rain measurements)
** Current wind speed in m/s (hover to see current wind gust speed)